Weather History for KMNM - March, 2014

Change the Weather History Date:

Tuesday, March 25, 2014

  Actual Average Record
Temperature  
Mean Temperature 14 °F -  
Max Temperature 21 °F 44 °F 61 °F (1968)
Min Temperature 6 °F 24 °F 4 °F (1960)
Degree Days  
Heating Degree Days 50    
Moisture  
Dew Point 2 °F    
Average Humidity 56    
Maximum Humidity 79    
Minimum Humidity 36    
Precipitation  
Precipitation 0.00 in - - ()
Sea Level Pressure  
Sea Level Pressure 30.04 in    
Wind  
Wind Speed 7 mph (NNW)    
Max Wind Speed 20 mph    
Max Gust Speed 24 mph    
Visibility 10 miles    
Events      
Averages and records for this station are not official NWS values.
T = Trace of Precipitation, MM = Missing Value Source: NWS Daily Summary

Daily Weather History Graph

Daily Weather History Graph

Search for Another Location

Airport or City:

Trip Planner

Search our weather history database for the weather conditions in past years. The results will help you decide how hot, cold, wet, or windy it might be!

Date:

Astronomy

Mar. 25, 2014 Rise Set
Actual Time 6:44 AM CDT 7:09 PM CDT
Civil Twilight 6:14 AM CDT 7:39 PM CDT
Nautical Twilight 5:40 AM CDT 8:13 PM CDT
Astronomical Twilight 5:04 AM CDT 8:49 PM CDT
Moon 3:19 AM CDT (3/25) 1:26 PM CDT (3/25)
Length of Visible Light 13h 24m
Length of Day
12h 25m
Waning Crescent, 32% of the Moon is Illuminated
Mar 25
Waning Crescent
Mar 30
New
Apr 7
First Quarter
Apr 15
Full
Apr 22
Last Quarter

Hourly Weather History & Observations

Time (CDT) Temp. Windchill Dew Point Humidity Pressure Visibility Wind Dir Wind Speed Gust Speed Precip Events Conditions
12:15 AM 23.0 °F 15.8 °F 14.0 °F 68% 29.95 in 10.0 mi NNW 5.8 mph - N/A   Clear
12:35 AM 19.4 °F 12.8 °F 8.6 °F 63% 29.95 in 10.0 mi East 4.6 mph - N/A   Partly Cloudy
12:55 AM 17.6 °F - 8.6 °F 68% 29.94 in 10.0 mi Calm Calm - N/A   Scattered Clouds
1:15 AM 15.8 °F - 6.8 °F 68% 29.94 in 10.0 mi Calm Calm - N/A   Clear
1:35 AM 15.8 °F - 6.8 °F 68% 29.94 in 10.0 mi Calm Calm - N/A   Clear
1:55 AM 15.8 °F - 6.8 °F 68% 29.93 in 10.0 mi Calm Calm - N/A   Clear
2:15 AM 14.0 °F 8.2 °F 5.0 °F 67% 29.93 in 10.0 mi SSW 3.5 mph - N/A   Clear
2:35 AM 14.0 °F - 5.0 °F 67% 29.93 in 10.0 mi Calm Calm - N/A   Clear
2:55 AM 14.0 °F 8.2 °F 8.6 °F 79% 29.92 in 10.0 mi West 3.5 mph - N/A   Clear
3:15 AM 14.0 °F - 8.6 °F 79% 29.92 in 10.0 mi Calm Calm - N/A   Partly Cloudy
3:35 AM 15.8 °F 7.2 °F 10.4 °F 79% 29.92 in 10.0 mi NW 5.8 mph - N/A   Clear
3:55 AM 17.6 °F 8.2 °F 10.4 °F 73% 29.92 in 10.0 mi NW 6.9 mph - N/A   Clear
4:15 AM 17.6 °F 6.4 °F 10.4 °F 73% 29.93 in 10.0 mi NW 9.2 mph - N/A   Clear
4:35 AM 15.8 °F 6.1 °F 8.6 °F 73% 29.93 in 10.0 mi NNW 6.9 mph - N/A   Scattered Clouds
4:55 AM 17.6 °F 5.7 °F 8.6 °F 68% 29.93 in 10.0 mi NNW 10.4 mph 17.3 mph N/A   Mostly Cloudy
5:15 AM 15.8 °F 4.2 °F 8.6 °F 73% 29.94 in 10.0 mi NNW 9.2 mph - N/A   Scattered Clouds
5:35 AM 15.8 °F 5.1 °F 8.6 °F 73% 29.94 in 10.0 mi NNW 8.1 mph - N/A   Clear
5:55 AM 15.8 °F 5.1 °F 6.8 °F 68% 29.94 in 10.0 mi NNW 8.1 mph - N/A   Clear
6:15 AM 14.0 °F 2.0 °F 6.8 °F 73% 29.95 in 10.0 mi NW 9.2 mph - N/A   Clear
6:35 AM 14.0 °F 3.9 °F 6.8 °F 73% 29.96 in 10.0 mi NW 6.9 mph - N/A   Clear
6:55 AM 14.0 °F 2.9 °F 6.8 °F 73% 29.97 in 10.0 mi NNW 8.1 mph - N/A   Clear
7:15 AM 12.2 °F 0.7 °F 5.0 °F 73% 29.98 in 10.0 mi NNW 8.1 mph - N/A   Clear
7:35 AM 14.0 °F 1.2 °F 5.0 °F 67% 29.99 in 10.0 mi NW 10.4 mph - N/A   Clear
7:55 AM 12.2 °F -1.8 °F 5.0 °F 73% 30.00 in 10.0 mi NNW 11.5 mph - N/A   Scattered Clouds
8:15 AM 14.0 °F -0.8 °F 6.8 °F 73% 30.00 in 10.0 mi NNW 13.8 mph 19.6 mph N/A   Scattered Clouds
8:35 AM 15.8 °F 3.4 °F 3.2 °F 58% 30.00 in 10.0 mi NNW 10.4 mph 16.1 mph N/A   Clear
8:55 AM 15.8 °F 2.1 °F 3.2 °F 58% 30.01 in 10.0 mi NNW 12.7 mph 20.7 mph N/A   Mostly Cloudy
9:15 AM 15.8 °F 3.4 °F 3.2 °F 58% 30.02 in 10.0 mi NNW 10.4 mph - N/A   Mostly Cloudy
9:35 AM 15.8 °F 1.4 °F 1.4 °F 53% 30.03 in 10.0 mi North 13.8 mph 23.0 mph N/A   Scattered Clouds
9:55 AM 17.6 °F 3.2 °F 3.2 °F 53% 30.04 in 10.0 mi NNW 15.0 mph 21.9 mph N/A   Scattered Clouds
10:15 AM 17.6 °F 3.2 °F 1.4 °F 49% 30.04 in 10.0 mi NNW 15.0 mph 20.7 mph N/A   Scattered Clouds
10:35 AM 17.6 °F 5.7 °F 1.4 °F 49% 30.05 in 10.0 mi North 10.4 mph 18.4 mph N/A   Partly Cloudy
10:55 AM 17.6 °F 5.7 °F 1.4 °F 49% 30.05 in 10.0 mi NW 10.4 mph 17.3 mph N/A   Partly Cloudy
11:15 AM 17.6 °F 6.4 °F 1.4 °F 49% 30.05 in 10.0 mi NW 9.2 mph 19.6 mph N/A   Scattered Clouds
11:35 AM 17.6 °F 5.7 °F -0.4 °F 45% 30.06 in 10.0 mi NNW 10.4 mph 17.3 mph N/A   Mostly Cloudy
11:55 AM 19.4 °F 3.6 °F -0.4 °F 42% 30.06 in 10.0 mi North 19.6 mph 24.2 mph N/A   Mostly Cloudy
12:15 PM 19.4 °F 6.6 °F -0.4 °F 42% 30.06 in 10.0 mi NNW 12.7 mph 18.4 mph N/A   Mostly Cloudy
12:35 PM 19.4 °F 5.5 °F -0.4 °F 42% 30.06 in 10.0 mi NNW 15.0 mph 19.6 mph N/A   Overcast
12:55 PM 19.4 °F 6.6 °F -2.2 °F 39% 30.06 in 10.0 mi NW 12.7 mph 16.1 mph N/A   Overcast
1:15 PM 19.4 °F 9.5 °F 1.4 °F 46% 30.06 in 10.0 mi NW 8.1 mph 18.4 mph N/A   Overcast
1:35 PM 19.4 °F 8.6 °F -2.2 °F 39% 30.06 in 10.0 mi NNW 9.2 mph 16.1 mph N/A   Mostly Cloudy
1:55 PM 19.4 °F 7.2 °F -0.4 °F 42% 30.05 in 10.0 mi NNW 11.5 mph 17.3 mph N/A   Overcast
2:15 PM 19.4 °F 6.6 °F -0.4 °F 42% 30.05 in 10.0 mi NNW 12.7 mph 16.1 mph N/A   Overcast
2:35 PM 19.4 °F 9.5 °F -0.4 °F 42% 30.05 in 10.0 mi NW 8.1 mph - N/A   Mostly Cloudy
2:55 PM 19.4 °F 11.5 °F -0.4 °F 42% 30.05 in 10.0 mi NW 5.8 mph - N/A   Mostly Cloudy
3:15 PM 21.2 °F 12.6 °F -0.4 °F 39% 30.05 in 10.0 mi NW 6.9 mph - N/A   Overcast
3:35 PM 21.2 °F 8.3 °F -0.4 °F 39% 30.06 in 10.0 mi West 13.8 mph 19.6 mph N/A   Overcast
3:55 PM 21.2 °F 8.9 °F -0.4 °F 39% 30.05 in 10.0 mi WNW 12.7 mph - N/A   Mostly Cloudy
4:15 PM 21.2 °F 11.7 °F -0.4 °F 39% 30.06 in 10.0 mi WNW 8.1 mph - N/A   Scattered Clouds
4:35 PM 19.4 °F 8.6 °F -0.4 °F 42% 30.06 in 10.0 mi NNW 9.2 mph - N/A   Mostly Cloudy
4:55 PM 19.4 °F 10.4 °F -0.4 °F 42% 30.06 in 10.0 mi NW 6.9 mph - N/A   Overcast
5:15 PM 19.4 °F 7.2 °F 1.4 °F 46% 30.06 in 10.0 mi North 11.5 mph - N/A   Overcast
5:35 PM 19.4 °F 7.9 °F 1.4 °F 46% 30.07 in 10.0 mi NNW 10.4 mph - N/A   Overcast
5:55 PM 21.2 °F 8.3 °F -0.4 °F 39% 30.08 in 10.0 mi North 13.8 mph 19.6 mph N/A   Overcast
6:15 PM 19.4 °F 7.9 °F -2.2 °F 39% 30.09 in 10.0 mi NNW 10.4 mph 18.4 mph N/A   Mostly Cloudy
6:35 PM 19.4 °F 10.4 °F -4.0 °F 36% 30.10 in 10.0 mi NNW 6.9 mph - N/A   Mostly Cloudy
6:55 PM 19.4 °F 7.2 °F -2.2 °F 39% 30.11 in 10.0 mi NNW 11.5 mph 18.4 mph N/A   Overcast
7:15 PM 17.6 °F 8.2 °F -4.0 °F 38% 30.11 in 10.0 mi NNW 6.9 mph - N/A   Mostly Cloudy
7:35 PM 17.6 °F 7.3 °F -4.0 °F 38% 30.12 in 10.0 mi NNW 8.1 mph - N/A   Partly Cloudy
7:55 PM 17.6 °F 9.3 °F -4.0 °F 38% 30.13 in 10.0 mi NNW 5.8 mph - N/A   Clear
8:15 PM 15.8 °F 8.6 °F -4.0 °F 41% 30.13 in 10.0 mi North 4.6 mph - N/A   Clear
8:35 PM 15.8 °F 10.2 °F -2.2 °F 45% 30.14 in 10.0 mi North 3.5 mph - N/A   Clear
8:55 PM 15.8 °F 10.2 °F -4.0 °F 41% 30.15 in 10.0 mi North 3.5 mph - N/A   Clear
9:15 PM 14.0 °F - -2.2 °F 49% 30.15 in 10.0 mi Calm Calm - N/A   Clear
9:35 PM 10.4 °F - -2.2 °F 57% 30.15 in 10.0 mi Calm Calm - N/A   Clear
9:55 PM 10.4 °F - -0.4 °F 62% 30.15 in 10.0 mi Calm Calm - N/A   Clear
10:15 PM 8.6 °F - -0.4 °F 67% 30.16 in 10.0 mi Calm Calm - N/A   Clear
10:35 PM 8.6 °F - -2.2 °F 62% 30.16 in 10.0 mi Calm Calm - N/A   Clear
10:55 PM 6.8 °F - -2.2 °F 67% 30.17 in 10.0 mi Calm Calm - N/A   Partly Cloudy
11:15 PM 6.8 °F - -0.4 °F 72% 30.16 in 10.0 mi Calm Calm - N/A   Mostly Cloudy
11:35 PM 6.8 °F - -0.4 °F 72% 30.16 in 10.0 mi Calm Calm - N/A   Overcast
11:55 PM 6.8 °F - -0.4 °F 72% 30.16 in 10.0 mi Calm Calm - N/A   Overcast